RYR8771 LIBC-LIMF

Flight info

Callsign RYR8771
Flight time 1h 33m
Altitude 18000
Route CDC M729 AGNIS/N0449F380 DCT DELER DCT PEVIR DCT EDOPA DCT MALOG DCT VEXUV DCT PNZ DCT RIFFI DCT ELVIN DCT LUNAK DCT RAVAL DCT MEDAL DCT GILIO DCT ELB DCT LAGEN
Aircraft B738/M-SDE3FGILRWY/SB1

Departure

Time 2026-04-26 18:12
Airport Crotone Sant'Anna Pythagoras Airport (LIBC)

Arrival

Time 2026-04-26 19:46
Airport Turin Airport (LIMF)
Time Latitude Longitude Altitude Speed Heading
2026-04-26 17:42 38.99522 17.07784 527 ft 0 kts 310°
2026-04-26 18:05 38.99506 17.07818 526 ft 4 kts 303°
2026-04-26 18:05 38.99489 17.07845 526 ft 4 kts 320°
2026-04-26 18:05 38.99467 17.07863 526 ft 4 kts 343°
2026-04-26 18:05 38.99460 17.07865 526 ft 1 kts 348°
2026-04-26 18:08 38.99478 17.07860 526 ft 6 kts 348°
2026-04-26 18:09 38.99544 17.07843 526 ft 13 kts 349°
2026-04-26 18:09 38.99632 17.07871 525 ft 17 kts 60°
2026-04-26 18:09 38.99680 17.08014 523 ft 18 kts 39°
2026-04-26 18:09 38.99812 17.08002 522 ft 21 kts 348°
2026-04-26 18:10 38.99974 17.07961 526 ft 26 kts 349°
2026-04-26 18:10 39.00165 17.07913 528 ft 28 kts 349°
2026-04-26 18:10 39.00350 17.07865 528 ft 26 kts 349°
2026-04-26 18:10 39.00502 17.07828 530 ft 17 kts 349°
2026-04-26 18:11 39.00581 17.07765 529 ft 12 kts
2026-04-26 18:11 39.00586 17.07806 530 ft 5 kts 157°
2026-04-26 18:11 39.00574 17.07809 530 ft 0 kts 170°
2026-04-26 18:11 39.00562 17.07812 530 ft 17 kts 170°
2026-04-26 18:12 39.00170 17.07911 528 ft 96 kts 169°
2026-04-26 18:12 38.99286 17.08133 531 ft 160 kts 169°
2026-04-26 18:12 38.98530 17.08315 960 ft 161 kts 170°
2026-04-26 18:12 38.97449 17.08583 1923 ft 156 kts 169°
2026-04-26 18:13 38.96298 17.08880 2420 ft 185 kts 169°
2026-04-26 18:13 38.94920 17.09247 2705 ft 217 kts 169°
2026-04-26 18:13 38.93357 17.09658 3037 ft 242 kts 171°
2026-04-26 18:13 38.92216 17.09955 3205 ft 262 kts 171°
2026-04-26 18:14 38.89757 17.10558 4301 ft 272 kts 177°
2026-04-26 18:14 38.87913 17.10120 5177 ft 274 kts 210°
2026-04-26 18:14 38.86505 17.08503 6007 ft 276 kts 239°
2026-04-26 18:14 38.85727 17.06256 6929 ft 276 kts 258°
2026-04-26 18:15 38.85334 17.03839 7836 ft 279 kts 262°
2026-04-26 18:15 38.84994 17.01371 8711 ft 283 kts 262°
2026-04-26 18:15 38.84656 16.98860 9577 ft 288 kts 262°
2026-04-26 18:15 38.84311 16.96322 10446 ft 292 kts 262°
2026-04-26 18:16 38.83945 16.93666 10810 ft 315 kts 261°
2026-04-26 18:16 38.83106 16.87728 11521 ft 354 kts 261°
2026-04-26 18:16 38.82656 16.84608 12277 ft 358 kts 260°
2026-04-26 18:17 38.82198 16.81460 13105 ft 360 kts 260°
2026-04-26 18:17 38.81735 16.78294 13898 ft 363 kts 260°
2026-04-26 18:17 38.81267 16.75102 14642 ft 367 kts 260°
2026-04-26 18:17 38.80800 16.71919 15394 ft 369 kts 259°
2026-04-26 18:18 38.80322 16.68673 16126 ft 373 kts 259°
2026-04-26 18:18 38.79839 16.65396 16823 ft 376 kts 259°
2026-04-26 18:18 38.79349 16.62085 17487 ft 380 kts 259°
2026-04-26 18:18 38.78856 16.58750 18168 ft 383 kts 259°
2026-04-26 18:19 38.78357 16.55381 18799 ft 387 kts 259°
2026-04-26 18:19 38.77852 16.51982 19432 ft 390 kts 259°
2026-04-26 18:19 38.77344 16.48561 20060 ft 392 kts 259°
2026-04-26 18:19 38.76829 16.45111 20631 ft 396 kts 259°
2026-04-26 18:20 38.76317 16.41627 21219 ft 399 kts 261°
2026-04-26 18:20 38.76334 16.38074 21737 ft 403 kts 281°
2026-04-26 18:20 38.77248 16.34676 22310 ft 407 kts 297°
2026-04-26 18:20 38.78274 16.32662 22680 ft 409 kts 307°
2026-04-26 18:21 38.80753 16.28927 23375 ft 414 kts 310°
2026-04-26 18:21 38.82660 16.26134 23848 ft 417 kts 310°
2026-04-26 18:21 38.84576 16.23322 24330 ft 420 kts 310°
2026-04-26 18:21 38.86490 16.20483 24813 ft 422 kts 309°
2026-04-26 18:22 38.88407 16.17617 25266 ft 424 kts 309°
2026-04-26 18:22 38.90325 16.14732 25730 ft 426 kts 309°
2026-04-26 18:22 38.92249 16.11825 26165 ft 428 kts 309°
2026-04-26 18:22 38.94181 16.08898 26598 ft 430 kts 309°
2026-04-26 18:23 38.96119 16.05959 27019 ft 432 kts 309°
2026-04-26 18:23 38.98064 16.03009 27426 ft 434 kts 309°
2026-04-26 18:23 39.00020 16.00042 27799 ft 436 kts 309°
2026-04-26 18:23 39.01983 15.97061 28185 ft 437 kts 309°
2026-04-26 18:24 39.03950 15.94072 28585 ft 439 kts 309°
2026-04-26 18:24 39.05920 15.91069 28926 ft 441 kts 309°
2026-04-26 18:24 39.07903 15.88041 29255 ft 443 kts 309°
2026-04-26 18:24 39.09888 15.85006 29588 ft 444 kts 309°
2026-04-26 18:25 39.11882 15.81952 29888 ft 446 kts 309°
2026-04-26 18:25 39.13883 15.78888 30236 ft 447 kts 309°
2026-04-26 18:25 39.15880 15.75826 30646 ft 446 kts 309°
2026-04-26 18:25 39.17870 15.72773 31069 ft 444 kts 309°
2026-04-26 18:26 39.19853 15.69727 31472 ft 442 kts 309°
2026-04-26 18:26 39.21831 15.66686 31823 ft 442 kts 309°
2026-04-26 18:26 39.23810 15.63650 32142 ft 443 kts 309°
2026-04-26 18:26 39.25793 15.60614 32496 ft 442 kts 309°
2026-04-26 18:27 39.27745 15.57622 32878 ft 440 kts 309°
2026-04-26 18:27 39.29738 15.54564 33273 ft 439 kts 309°
2026-04-26 18:27 39.31701 15.51550 33613 ft 438 kts 309°
2026-04-26 18:27 39.33633 15.48577 33927 ft 438 kts 309°
2026-04-26 18:28 39.35588 15.45567 34246 ft 437 kts 309°
2026-04-26 18:28 39.37542 15.42553 34518 ft 438 kts 309°
2026-04-26 18:28 39.39498 15.39538 34810 ft 438 kts 309°
2026-04-26 18:28 39.41449 15.36523 35125 ft 436 kts 309°
2026-04-26 18:29 39.43396 15.33512 35423 ft 436 kts 309°
2026-04-26 18:29 39.45340 15.30502 35691 ft 436 kts 309°
2026-04-26 18:29 39.47285 15.27488 35958 ft 436 kts 309°
2026-04-26 18:29 39.49227 15.24477 36230 ft 435 kts 309°
2026-04-26 18:30 39.51165 15.21469 36473 ft 436 kts 309°
2026-04-26 18:30 39.53108 15.18450 36692 ft 436 kts 309°
2026-04-26 18:30 39.55046 15.15435 36995 ft 434 kts 309°
2026-04-26 18:30 39.56961 15.12458 37452 ft 428 kts 309°
2026-04-26 18:31 39.58860 15.09501 37799 ft 425 kts 309°
2026-04-26 18:31 39.60750 15.06551 37974 ft 426 kts 309°
2026-04-26 18:31 39.62645 15.03592 38094 ft 427 kts 309°
2026-04-26 18:31 39.64541 15.00627 38169 ft 428 kts 309°
2026-04-26 18:32 39.68347 14.94670 38184 ft 429 kts 309°
2026-04-26 18:32 39.72143 14.88720 38188 ft 427 kts 309°
2026-04-26 18:33 39.75926 14.82778 38175 ft 426 kts 309°
2026-04-26 18:33 39.79694 14.76847 38176 ft 425 kts 309°
2026-04-26 18:34 39.83452 14.70914 38171 ft 425 kts 308°
2026-04-26 18:34 39.87198 14.64971 38169 ft 425 kts 308°
2026-04-26 18:35 39.90950 14.59012 38168 ft 426 kts 308°
2026-04-26 18:35 39.94709 14.53032 38167 ft 427 kts 308°
2026-04-26 18:36 39.98470 14.47032 38168 ft 428 kts 308°
2026-04-26 18:36 40.02242 14.41009 38165 ft 429 kts 308°
2026-04-26 18:37 40.06016 14.34971 38168 ft 430 kts 308°
2026-04-26 18:37 40.09795 14.28909 38166 ft 431 kts 308°
2026-04-26 18:38 40.13556 14.22865 38164 ft 432 kts 308°
2026-04-26 18:38 40.17345 14.16766 38153 ft 432 kts 308°
2026-04-26 18:39 40.21143 14.10671 38150 ft 432 kts 308°
2026-04-26 18:39 40.24957 14.04593 38151 ft 432 kts 308°
2026-04-26 18:40 40.28753 13.98520 38155 ft 431 kts 308°
2026-04-26 18:40 40.32519 13.92419 38160 ft 430 kts 308°
2026-04-26 18:41 40.36266 13.86326 38166 ft 429 kts 308°
2026-04-26 18:41 40.40010 13.80235 38158 ft 429 kts 308°
2026-04-26 18:42 40.43750 13.74139 38150 ft 429 kts 308°
2026-04-26 18:42 40.47485 13.68033 38135 ft 428 kts 308°
2026-04-26 18:43 40.51213 13.61928 38134 ft 429 kts 308°
2026-04-26 18:43 40.54940 13.55814 38135 ft 428 kts 308°
2026-04-26 18:44 40.58665 13.49694 38142 ft 428 kts 308°
2026-04-26 18:44 40.62361 13.43609 38133 ft 429 kts 308°
2026-04-26 18:45 40.66080 13.37475 38133 ft 429 kts 308°
2026-04-26 18:45 40.69799 13.31330 38142 ft 429 kts 307°
2026-04-26 18:46 40.73511 13.25182 38149 ft 429 kts 307°
2026-04-26 18:46 40.77218 13.19027 38137 ft 428 kts 307°
2026-04-26 18:47 40.80914 13.12877 38133 ft 428 kts 307°
2026-04-26 18:47 40.84611 13.06716 38134 ft 428 kts 307°
2026-04-26 18:48 40.88305 13.00548 38134 ft 428 kts 307°
2026-04-26 18:48 40.92044 12.94418 38145 ft 429 kts 311°
2026-04-26 18:49 40.96195 12.88742 38136 ft 429 kts 314°
2026-04-26 18:49 41.00413 12.83160 38137 ft 429 kts 313°
2026-04-26 18:50 41.04597 12.77530 38136 ft 429 kts 313°
2026-04-26 18:50 41.08767 12.71859 38131 ft 429 kts 313°
2026-04-26 18:51 41.12928 12.66175 38130 ft 430 kts 313°
2026-04-26 18:51 41.17087 12.60484 38129 ft 430 kts 313°
2026-04-26 18:52 41.21246 12.54787 38131 ft 430 kts 313°
2026-04-26 18:52 41.25407 12.49090 38143 ft 429 kts 313°
2026-04-26 18:53 41.29568 12.43398 38140 ft 429 kts 313°
2026-04-26 18:53 41.33724 12.37702 38132 ft 429 kts 313°
2026-04-26 18:54 41.37874 12.32001 38123 ft 429 kts 313°
2026-04-26 18:54 41.42017 12.26300 38131 ft 428 kts 313°
2026-04-26 18:55 41.46128 12.20626 38133 ft 428 kts 312°
2026-04-26 18:55 41.50263 12.14910 38130 ft 428 kts 312°
2026-04-26 18:56 41.54391 12.09183 38128 ft 428 kts 312°
2026-04-26 18:56 41.58514 12.03451 38130 ft 428 kts 312°
2026-04-26 18:57 41.61270 11.99614 38126 ft 428 kts 312°
2026-04-26 18:57 41.66750 11.91967 38132 ft 428 kts 312°
2026-04-26 18:58 41.70861 11.86220 38128 ft 427 kts 312°
2026-04-26 18:58 41.74965 11.80472 38129 ft 427 kts 312°
2026-04-26 18:59 41.79063 11.74724 38133 ft 426 kts 312°
2026-04-26 18:59 41.83152 11.68972 38151 ft 426 kts 312°
2026-04-26 19:00 41.86542 11.64190 38154 ft 426 kts 312°
2026-04-26 19:00 41.90626 11.58425 38145 ft 426 kts 312°
2026-04-26 19:01 41.94708 11.52647 38144 ft 427 kts 312°
2026-04-26 19:01 41.98790 11.46859 38155 ft 427 kts 312°
2026-04-26 19:02 42.02872 11.41059 38148 ft 427 kts 311°
2026-04-26 19:02 42.06265 11.36232 38148 ft 427 kts 311°
2026-04-26 19:03 42.11041 11.29429 38157 ft 428 kts 311°
2026-04-26 19:03 42.15121 11.23609 38162 ft 427 kts 311°
2026-04-26 19:04 42.19195 11.17777 38156 ft 427 kts 311°
2026-04-26 19:04 42.23264 11.11946 38153 ft 427 kts 311°
2026-04-26 19:05 42.29358 11.03187 38153 ft 427 kts 311°
2026-04-26 19:06 42.33389 10.97382 38153 ft 426 kts 311°
2026-04-26 19:06 42.37445 10.91529 38154 ft 426 kts 311°
2026-04-26 19:07 42.41499 10.85673 38148 ft 426 kts 311°
2026-04-26 19:07 42.45548 10.79814 38151 ft 426 kts 311°
2026-04-26 19:08 42.49591 10.73948 38135 ft 426 kts 311°
2026-04-26 19:08 42.53630 10.68077 38134 ft 426 kts 311°
2026-04-26 19:09 42.57664 10.62201 38138 ft 426 kts 311°
2026-04-26 19:09 42.61695 10.56317 38144 ft 425 kts 311°
2026-04-26 19:10 42.65719 10.50432 38147 ft 425 kts 311°
2026-04-26 19:10 42.69740 10.44537 38151 ft 425 kts 311°
2026-04-26 19:11 42.73812 10.38701 38152 ft 426 kts 316°
2026-04-26 19:11 42.78391 10.33556 38162 ft 427 kts 320°
2026-04-26 19:12 42.83058 10.28531 38162 ft 428 kts 319°
2026-04-26 19:12 42.87705 10.23468 38160 ft 428 kts 319°
2026-04-26 19:13 42.92336 10.18360 38155 ft 428 kts 319°
2026-04-26 19:13 42.96956 10.13231 38159 ft 428 kts 319°
2026-04-26 19:14 43.01574 10.08092 38155 ft 428 kts 319°
2026-04-26 19:14 43.06183 10.02951 38160 ft 428 kts 319°
2026-04-26 19:15 43.10792 9.97805 38155 ft 428 kts 319°
2026-04-26 19:15 43.15391 9.92659 38156 ft 427 kts 318°
2026-04-26 19:16 43.19955 9.87539 38155 ft 426 kts 319°
2026-04-26 19:16 43.24539 9.82389 38159 ft 426 kts 318°
2026-04-26 19:17 43.29112 9.77238 38155 ft 425 kts 318°
2026-04-26 19:17 43.33683 9.72079 38155 ft 425 kts 318°
2026-04-26 19:18 43.38251 9.66916 38156 ft 425 kts 318°
2026-04-26 19:18 43.42815 9.61749 38149 ft 425 kts 318°
2026-04-26 19:19 43.47387 9.56553 37893 ft 430 kts 318°
2026-04-26 19:19 43.49697 9.53925 37449 ft 430 kts 318°
2026-04-26 19:19 43.51996 9.51311 36889 ft 428 kts 318°
2026-04-26 19:19 43.54287 9.48702 36336 ft 427 kts 319°
2026-04-26 19:20 43.56576 9.46093 35728 ft 427 kts 319°
2026-04-26 19:20 43.58090 9.44365 35296 ft 427 kts 319°
2026-04-26 19:20 43.61159 9.40859 34413 ft 429 kts 319°
2026-04-26 19:20 43.63460 9.38226 33838 ft 428 kts 319°
2026-04-26 19:21 43.65740 9.35618 33376 ft 424 kts 319°
2026-04-26 19:21 43.68000 9.33030 32904 ft 420 kts 319°
2026-04-26 19:21 43.70238 9.30461 32443 ft 417 kts 319°
2026-04-26 19:21 43.72464 9.27904 31985 ft 414 kts 319°
2026-04-26 19:22 43.74669 9.25368 31533 ft 411 kts 319°
2026-04-26 19:22 43.76856 9.22849 31090 ft 408 kts 319°
2026-04-26 19:22 43.79027 9.20348 30632 ft 405 kts 319°
2026-04-26 19:22 43.81186 9.17859 30189 ft 402 kts 319°
2026-04-26 19:23 43.83329 9.15386 29744 ft 400 kts 319°
2026-04-26 19:23 43.85456 9.12930 29286 ft 397 kts 319°
2026-04-26 19:23 43.87569 9.10486 28825 ft 394 kts 319°
2026-04-26 19:23 43.89670 9.08054 28376 ft 392 kts 319°
2026-04-26 19:24 43.91757 9.05637 27927 ft 390 kts 319°
2026-04-26 19:24 43.93800 9.03268 27470 ft 387 kts 319°
2026-04-26 19:24 43.97911 8.98498 26581 ft 383 kts 319°
2026-04-26 19:25 43.99945 8.96131 26144 ft 380 kts 319°
2026-04-26 19:25 44.01311 8.94540 25850 ft 379 kts 319°
2026-04-26 19:25 44.03971 8.91439 25266 ft 376 kts 319°
2026-04-26 19:25 44.05968 8.89111 24830 ft 373 kts 318°
2026-04-26 19:26 44.07951 8.86796 24399 ft 371 kts 319°
2026-04-26 19:26 44.09924 8.84492 23949 ft 369 kts 318°
2026-04-26 19:26 44.11885 8.82198 23527 ft 367 kts 318°
2026-04-26 19:26 44.13835 8.79916 23101 ft 365 kts 319°
2026-04-26 19:27 44.15774 8.77645 22680 ft 364 kts 319°
2026-04-26 19:27 44.17704 8.75382 22245 ft 362 kts 319°
2026-04-26 19:27 44.19622 8.73131 21821 ft 360 kts 319°
2026-04-26 19:27 44.21533 8.70886 21397 ft 358 kts 319°
2026-04-26 19:28 44.23432 8.68654 20980 ft 356 kts 319°
2026-04-26 19:28 44.25317 8.66434 20565 ft 354 kts 319°
2026-04-26 19:28 44.27194 8.64224 20151 ft 352 kts 319°
2026-04-26 19:28 44.29059 8.62026 19742 ft 350 kts 319°
2026-04-26 19:29 44.30914 8.59837 19323 ft 348 kts 319°
2026-04-26 19:29 44.32758 8.57660 18920 ft 346 kts 319°
2026-04-26 19:29 44.34593 8.55493 18510 ft 344 kts 319°
2026-04-26 19:29 44.36416 8.53338 18105 ft 342 kts 319°
2026-04-26 19:30 44.38228 8.51195 17705 ft 340 kts 319°
2026-04-26 19:30 44.40005 8.49021 17308 ft 338 kts 315°
2026-04-26 19:30 44.41599 8.46628 16927 ft 335 kts 310°
2026-04-26 19:30 44.42605 8.44994 16679 ft 334 kts 310°
2026-04-26 19:31 44.44601 8.41693 16150 ft 331 kts 310°
2026-04-26 19:31 44.46093 8.39245 15755 ft 330 kts 310°
2026-04-26 19:31 44.47588 8.36818 15356 ft 329 kts 310°
2026-04-26 19:31 44.49085 8.34408 14962 ft 327 kts 311°
2026-04-26 19:32 44.50582 8.32010 14576 ft 326 kts 311°
2026-04-26 19:32 44.52072 8.29624 14175 ft 325 kts 311°
2026-04-26 19:32 44.53557 8.27251 13878 ft 320 kts 311°
2026-04-26 19:32 44.55004 8.24936 13736 ft 312 kts 311°
2026-04-26 19:33 44.56412 8.22680 13592 ft 303 kts 311°
2026-04-26 19:33 44.57779 8.20487 13419 ft 296 kts 311°
2026-04-26 19:33 44.59131 8.18309 13089 ft 297 kts 311°
2026-04-26 19:33 44.60480 8.16133 12796 ft 295 kts 311°
2026-04-26 19:34 44.61824 8.13967 12479 ft 293 kts 312°
2026-04-26 19:34 44.63211 8.11902 12008 ft 297 kts 315°
2026-04-26 19:34 44.64672 8.09867 11559 ft 294 kts 316°
2026-04-26 19:34 44.66152 8.07829 10946 ft 294 kts 316°
2026-04-26 19:35 44.67600 8.05838 10386 ft 296 kts 316°
2026-04-26 19:35 44.69032 8.03850 10088 ft 284 kts 315°
2026-04-26 19:35 44.70420 8.01920 9762 ft 276 kts 315°
2026-04-26 19:35 44.71779 8.00026 9486 ft 275 kts 315°
2026-04-26 19:36 44.73132 7.98121 9205 ft 275 kts 315°
2026-04-26 19:36 44.73590 7.97481 9101 ft 275 kts 315°
2026-04-26 19:36 44.75834 7.94317 8628 ft 275 kts 316°
2026-04-26 19:36 44.77196 7.92418 8337 ft 276 kts 315°
2026-04-26 19:37 44.78552 7.90493 8039 ft 276 kts 314°
2026-04-26 19:37 44.79896 7.88580 7741 ft 275 kts 315°
2026-04-26 19:37 44.81239 7.86681 7342 ft 272 kts 315°
2026-04-26 19:37 44.82565 7.84805 7054 ft 271 kts 315°
2026-04-26 19:38 44.83890 7.82930 6877 ft 266 kts 314°
2026-04-26 19:38 44.85177 7.81107 6739 ft 259 kts 314°
2026-04-26 19:38 44.86429 7.79330 6636 ft 252 kts 314°
2026-04-26 19:38 44.87645 7.77604 6536 ft 244 kts 314°
2026-04-26 19:39 44.88821 7.75932 6437 ft 237 kts 314°
2026-04-26 19:39 44.89959 7.74314 6340 ft 228 kts 314°
2026-04-26 19:39 44.91066 7.72743 6178 ft 223 kts 314°
2026-04-26 19:39 44.92142 7.71211 5967 ft 217 kts 314°
2026-04-26 19:40 44.93189 7.69720 5728 ft 211 kts 314°
2026-04-26 19:40 44.94212 7.68263 5510 ft 206 kts 314°
2026-04-26 19:40 44.95213 7.66841 5298 ft 203 kts 314°
2026-04-26 19:40 44.96198 7.65438 5098 ft 200 kts 314°
2026-04-26 19:41 44.97188 7.64086 4983 ft 194 kts 324°
2026-04-26 19:41 44.98452 7.63528 4903 ft 198 kts
2026-04-26 19:41 44.99825 7.63685 4654 ft 198 kts
2026-04-26 19:41 45.00285 7.63717 4575 ft 195 kts
2026-04-26 19:42 45.02468 7.63849 4142 ft 183 kts
2026-04-26 19:42 45.03722 7.63928 3909 ft 178 kts
2026-04-26 19:42 45.04956 7.64007 3676 ft 177 kts
2026-04-26 19:42 45.06179 7.64082 3442 ft 175 kts
2026-04-26 19:43 45.07390 7.64158 3205 ft 174 kts
2026-04-26 19:43 45.08591 7.64236 2980 ft 172 kts
2026-04-26 19:43 45.09766 7.64309 2759 ft 165 kts
2026-04-26 19:43 45.10896 7.64381 2530 ft 161 kts
2026-04-26 19:44 45.11982 7.64452 2319 ft 155 kts
2026-04-26 19:44 45.13042 7.64521 2136 ft 151 kts
2026-04-26 19:44 45.14102 7.64584 1940 ft 154 kts
2026-04-26 19:44 45.15167 7.64660 1732 ft 157 kts
2026-04-26 19:45 45.16268 7.64716 1521 ft 156 kts
2026-04-26 19:45 45.17319 7.64789 1317 ft 152 kts
2026-04-26 19:45 45.18370 7.64855 1108 ft 149 kts
2026-04-26 19:45 45.19393 7.64920 987 ft 141 kts
2026-04-26 19:46 45.20223 7.64974 982 ft 90 kts
2026-04-26 19:46 45.20676 7.65002 986 ft 53 kts
2026-04-26 19:46 45.20872 7.64913 984 ft 23 kts 290°
2026-04-26 19:46 45.20825 7.64751 984 ft 19 kts 204°
2026-04-26 19:47 45.20695 7.64736 985 ft 19 kts 181°
2026-04-26 19:47 45.20652 7.64732 985 ft 18 kts 183°
2026-04-26 19:47 45.20485 7.64720 992 ft 18 kts 183°
2026-04-26 19:47 45.20327 7.64712 985 ft 17 kts 182°
2026-04-26 19:48 45.20250 7.64707 984 ft 16 kts 183°
2026-04-26 19:48 45.20139 7.64700 991 ft 16 kts 182°
2026-04-26 19:48 45.20033 7.64693 984 ft 15 kts 182°
2026-04-26 19:48 45.19930 7.64686 984 ft 15 kts 183°
2026-04-26 19:49 45.19812 7.64679 988 ft 18 kts 181°
2026-04-26 19:49 45.19674 7.64694 984 ft 22 kts 182°
2026-04-26 19:49 45.19516 7.64685 985 ft 24 kts 182°
2026-04-26 19:49 45.19354 7.64674 985 ft 23 kts 182°
2026-04-26 19:50 45.19227 7.64666 989 ft 15 kts 182°
2026-04-26 19:50 45.19133 7.64660 988 ft 12 kts 182°
2026-04-26 19:50 45.19082 7.64610 985 ft 9 kts 254°
2026-04-26 19:50 45.19068 7.64535 985 ft 5 kts 257°
2026-04-26 19:51 45.19064 7.64507 985 ft 1 kts 257°
2026-04-26 19:51 45.19063 7.64504 991 ft 0 kts 257°